GW4116 Weather Reports


Display with metric or nautical units.
time (UTC)temp
F
wind
direction
speed
MPH
gust
MPH
rain 1hr
in
rain 24hr
in
rain mn
in
humidity
%
barometer
mb
20260906215020 89 56 5.0 9.0 0.00 0.00 0.00 35 1016.2
20260906214017 88 80 2.0 7.0 0.00 0.00 0.00 35 1016.4
20260906213017 89 101 2.0 5.0 0.00 0.00 0.00 34 1016.6
20260906212017 88 47 2.0 6.0 0.00 0.00 0.00 35 1016.8
20260906211017 90 93 2.0 5.0 0.00 0.00 0.00 35 1017.0
20260906210037 89 58 1.0 4.0 0.00 0.00 0.00 36 1017.2
20260906205018 88 65 2.0 5.0 0.00 0.00 0.00 36 1017.3
20260906204017 88 46 2.0 6.0 0.00 0.00 0.00 35 1017.5
20260906203038 87 114 1.0 5.0 0.00 0.00 0.00 33 1017.5
20260906202018 86 63 3.0 9.0 0.00 0.00 0.00 37 1017.6
20260906201018 87 81 2.0 8.0 0.00 0.00 0.00 37 1017.7
20260906200018 85 63 2.0 5.0 0.00 0.00 0.00 39 1017.8
20260906195018 84 64 3.0 7.0 0.00 0.00 0.00 39 1017.8
20260906194015 84 37 3.0 7.0 0.00 0.00 0.00 41 1018.0
20260906193018 84 100 2.0 5.0 0.00 0.00 0.00 40 1018.1
20260906192019 84 75 2.0 5.0 0.00 0.00 0.00 41 1018.2
20260906191019 83 56 2.0 5.0 0.00 0.00 0.00 40 1018.4
20260906190019 82 59 4.0 9.0 0.00 0.00 0.00 41 1018.6
20260906185017 82 48 4.0 7.0 0.00 0.00 0.00 43 1018.9
20260906184016 82 25 3.0 9.0 0.00 0.00 0.00 46 1019.1
20260906183017 80 90 2.0 6.0 0.00 0.00 0.00 46 1019.3
20260906182017 79 57 4.0 7.0 0.00 0.00 0.00 50 1019.5
20260906181020 79 48 3.0 7.0 0.00 0.00 0.00 51 1019.6
20260906180037 78 87 2.0 4.0 0.00 0.00 0.00 53 1019.8
20260906175017 78 43 2.0 5.0 0.00 0.00 0.00 55 1020.1
20260906174017 77 49 2.0 5.0 0.00 0.00 0.00 57 1020.3
20260906173018 76 312 1.0 3.0 0.00 0.00 0.00 57 1020.6
20260906172017 76 295 2.0 4.0 0.00 0.00 0.00 57 1020.6
20260906171017 75 210 1.0 3.0 0.00 0.00 0.00 59 1020.9
20260906170018 74 234 1.0 3.0 0.00 0.00 0.00 60 1021.1
20260906165018 73 47 3.0 6.0 0.00 0.00 0.00 63 1021.2
20260906164018 73 39 2.0 5.0 0.00 0.00 0.00 64 1021.2
20260906163018 72 30 3.0 7.0 0.00 0.00 0.00 65 1021.2
20260906162018 72 336 2.0 5.0 0.00 0.00 0.00 66 1021.2
20260906161038 71 310 1.0 4.0 0.00 0.00 0.00 67 1021.1
20260906160019 70 320 2.0 6.0 0.00 0.00 0.00 68 1021.1
20260906155015 70 26 3.0 7.0 0.00 0.00 0.00 68 1021.2
20260906154020 69 350 3.0 6.0 0.00 0.00 0.00 69 1021.3
20260906153019 68 310 3.0 6.0 0.00 0.00 0.00 70 1021.4
20260906152019 68 19 3.0 6.0 0.00 0.00 0.00 71 1021.3
20260906151019 68 301 3.0 7.0 0.00 0.00 0.00 72 1021.5
20260906150017 67 325 3.0 6.0 0.00 0.00 0.00 74 1021.3
20260906145017 67 20 3.0 8.0 0.00 0.00 0.00 75 1021.4
20260906144016 67 343 3.0 7.0 0.00 0.00 0.00 73 1021.4
20260906143020 67 291 2.0 5.0 0.00 0.00 0.00 74 1021.3
20260906142020 67 292 2.0 5.0 0.00 0.00 0.00 73 1021.4
20260906141017 66 350 2.0 5.0 0.00 0.00 0.00 75 1021.5
20260906140017 65 294 3.0 6.0 0.00 0.00 0.00 76 1021.3
20260906135018 65 320 3.0 7.0 0.00 0.00 0.00 75 1021.2
20260906134017 64 287 3.0 8.0 0.00 0.00 0.00 76 1021.2
20260906133030 64 246 3.0 6.0 0.00 0.00 0.00 77 1021.1
20260906132031 63 287 3.0 5.0 0.00 0.00 0.00 79 1021.1
20260906131030 62 278 3.0 5.0 0.00 0.00 0.00 81 1021.0
20260906130030 62 24 1.0 3.0 0.00 0.00 0.00 82 1021.0
20260906125050 62 55 1.0 3.0 0.00 0.00 0.00 81 1020.9
20260906124030 62 343 2.0 3.0 0.00 0.00 0.00 81 1020.9
20260906123030 62 266 2.0 3.0 0.00 0.00 0.00 81 1020.9
20260906122031 62 285 2.0 3.0 0.00 0.00 0.00 81 1020.9
20260906121030 62 197 2.0 4.0 0.00 0.00 0.00 80 1020.9
20260906120031 62 336 2.0 3.0 0.00 0.00 0.00 83 1020.8
20260906115016 62 44 2.0 3.0 0.00 0.00 0.00 84 1020.8
20260906114136 62 8 2.0 3.0 0.00 0.00 0.00 83 1021.0
20260906113016 62 352 2.0 3.0 0.00 0.00 0.00 84 1020.8
20260906112016 62 12 2.0 3.0 0.00 0.00 0.00 84 1020.8
20260906111016 63 342 2.0 4.0 0.00 0.00 0.00 83 1020.7
20260906110016 63 2 2.0 4.0 0.00 0.00 0.00 82 1020.6
20260906105031 63 10 2.0 4.0 0.00 0.00 0.00 81 1020.5
20260906104032 63 7 2.0 3.0 0.00 0.00 0.00 79 1020.6
20260906103057 63 10 2.0 3.0 0.00 0.00 0.00 78 1020.5
20260906102017 64 10 2.0 4.0 0.00 0.00 0.00 77 1020.5
20260906101017 64 26 2.0 4.0 0.00 0.00 0.00 75 1020.4
20260906100037 64 340 1.0 3.0 0.00 0.00 0.00 75 1020.3
20260906095038 65 2 2.0 3.0 0.00 0.00 0.00 73 1020.4
20260906094017 65 21 2.0 3.0 0.00 0.00 0.00 71 1020.5
20260906093018 66 44 3.0 5.0 0.00 0.00 0.00 69 1020.5
20260906092018 66 42 3.0 5.0 0.00 0.00 0.00 68 1020.4
20260906091038 67 44 2.0 4.0 0.00 0.00 0.00 67 1020.2
20260906090018 67 333 2.0 5.0 0.00 0.00 0.00 64 1020.0
20260906085018 68 14 2.0 4.0 0.00 0.00 0.00 62 1019.8
20260906084019 68 21 3.0 4.0 0.00 0.00 0.00 58 1019.7
20260906083022 69 27 3.0 7.0 0.00 0.00 0.00 55 1019.6
20260906082022 70 33 4.0 8.0 0.00 0.00 0.00 53 1019.7
20260906081019 71 40 5.0 10.0 0.00 0.00 0.00 48 1019.7
20260906080022 72 41 6.0 9.0 0.00 0.00 0.00 44 1019.5
20260906075042 72 40 4.0 7.0 0.00 0.00 0.00 43 1019.2
20260906074022 72 344 3.0 6.0 0.00 0.00 0.00 43 1019.3
20260906073019 72 342 2.0 4.0 0.00 0.00 0.00 44 1019.5
20260906072020 71 306 2.0 3.0 0.00 0.00 0.00 45 1019.6
20260906071019 72 15 1.0 2.0 0.00 0.00 0.00 47 1019.5
20260906070019 72 303 2.0 3.0 0.00 0.00 0.00 48 1019.5
20260906065041 72 302 2.0 3.0 0.00 0.00 0.00 46 1019.6
20260906064023 72 234 2.0 8.0 0.00 0.00 0.00 47 1019.7
20260906063040 72 329 2.0 3.0 0.00 0.00 0.00 49 1019.7
20260906062020 73 277 3.0 4.0 0.00 0.00 0.00 44 1019.8
20260906061020 74 280 1.0 1.0 0.00 0.00 0.00 41 1019.6
20260906060020 74 42 2.0 3.0 0.00 0.00 0.00 41 1019.2
20260906055020 74 8 1.0 2.0 0.00 0.00 0.00 42 1019.5
20260906054021 74 327 1.0 2.0 0.00 0.00 0.00 42 1019.8
20260906053021 75 353 1.0 1.0 0.00 0.00 0.00 43 1020.1
20260906052021 75 39 1.0 1.0 0.00 0.00 0.00 40 1020.3
20260906051021 74 256 2.0 3.0 0.00 0.00 0.00 39 1020.3
20260906050021 74 214 1.0 3.0 0.00 0.00 0.00 42 1020.6
20260906045022 74 190 1.0 2.0 0.00 0.00 0.00 43 1020.3
20260906044101 74 275 2.0 3.0 0.00 0.00 0.00 42 1019.6
20260906043022 74 346 1.0 2.0 0.00 0.00 0.00 40 1019.4
20260906042022 74 18 1.0 3.0 0.00 0.00 0.00 41 1019.5
20260906041022 74 274 1.0 2.0 0.00 0.00 0.00 39 1019.2
20260906040021 74 120 0.0 1.0 0.00 0.00 0.00 39 1019.1
20260906035059 75 90 0.0 1.0 0.00 0.00 0.00 37 1018.9
20260906034039 76 62 1.0 3.0 0.00 0.00 0.00 36 1018.9
20260906033056 77 268 1.0 2.0 0.00 0.00 0.00 36 1018.9
20260906032017 77 11 1.0 2.0 0.00 0.00 0.00 34 1018.7
20260906031017 78 2 1.0 2.0 0.00 0.00 0.00 34 1018.4
20260906030020 78 41 2.0 4.0 0.00 0.00 0.00 34 1018.2
20260906025017 78 49 2.0 4.0 0.00 0.00 0.00 33 1017.9
20260906024018 79 43 2.0 4.0 0.00 0.00 0.00 33 1017.9
20260906023017 79 40 2.0 3.0 0.00 0.00 0.00 33 1017.8
20260906022019 80 14 2.0 4.0 0.00 0.00 0.00 33 1017.9
20260906021018 81 329 2.0 5.0 0.00 0.00 0.00 32 1017.8
20260906020018 81 1 2.0 5.0 0.00 0.00 0.00 32 1017.8
20260906015018 82 326 2.0 4.0 0.00 0.00 0.00 31 1017.6
20260906014018 83 351 4.0 7.0 0.00 0.00 0.00 30 1017.5
20260906013018 83 329 3.0 7.0 0.00 0.00 0.00 29 1017.4
20260906012018 84 322 2.0 4.0 0.00 0.00 0.00 29 1017.4
20260906011018 84 296 3.0 8.0 0.00 0.00 0.00 28 1017.4
20260906010016 85 332 3.0 6.0 0.00 0.00 0.00 28 1017.3
20260906005036 86 348 2.0 6.0 0.00 0.00 0.00 27 1017.3
20260906004019 87 346 2.0 6.0 0.00 0.00 0.00 26 1017.3
20260906003147 87 356 2.0 7.0 0.00 0.00 0.00 25 1017.3
20260906002026 88 347 3.0 6.0 0.00 0.00 0.00 24 1017.2
20260906001017 89 341 3.0 7.0 0.00 0.00 0.00 24 1017.1
20260906000019 91 339 3.0 6.0 0.00 0.00 0.00 23 1017.0
20260905235020 91 355 3.0 6.0 0.00 0.00 0.00 22 1016.9
20260905234037 91 26 3.0 7.0 0.00 0.00 0.00 22 1016.9
20260905233017 91 249 1.0 3.0 0.00 0.00 0.00 22 1016.8
20260905232018 92 42 1.0 5.0 0.00 0.00 0.00 21 1016.8
20260905231017 91 309 1.0 2.0 0.00 0.00 0.00 22 1016.8
20260905230038 91 267 2.0 3.0 0.00 0.00 0.00 22 1016.7
20260905225018 93 4 1.0 4.0 0.00 0.00 0.00 22 1016.7
20260905224017 91 255 1.0 4.0 0.00 0.00 0.00 21 1016.7
20260905223038 90 280 1.0 2.0 0.00 0.00 0.00 21 1016.8
20260905222038 90 65 2.0 6.0 0.00 0.00 0.00 23 1016.9
20260905221038 90 60 2.0 6.0 0.00 0.00 0.00 22 1016.9